Location: Canazei
(46.4667°N, 11.7667°E)
Time: 05:48:08
(UTC+00:00)

Cosmos 1844 - Pass Details

Date: 21 April 2021
Orbit: 824 x 866 km, 70.9° (Epoch: 15 May)

Event Time Altitude Azimuth Distance (km) Brightness Sun altitude
Exits shadow 00:09:42 56° 316° (NW) 1,017 4.1 -30.2°
Drops below altitude 10° 00:15:01 10° 20° (NNE) 2,492 7.1 -30.0°
Sets 00:17:32 0° 25° (NNE) 3,425 8.1 -29.8°
